Regional Weather Roundup
Issued by NWS

Home | Current Version | Previous Version | Graphics & Text | Print | Product List | Glossary On
Versions: 1 2 3 4 5 6 7 8 9 10 11 12 13 14 15 16 17 18 19 20 21 22 23 24 25 26 27 28 29 30 31 32 33 34 35 36 37 38 39 40 41 42 43 44 45 46 47 48 49 50
000
ASUS45 KABQ 040201
RWRNM
WEATHER ROUNDUP FOR NEW MEXICO
NATIONAL WEATHER SERVICE ALBUQUERQUE NM
700 PM MST TUE MAR 03 2015

NOTE: "FAIR" MEANS FEW OR NO CLOUDS BELOW 12,000 FEET AGL WITH NO
       SIGNIFICANT WEATHER OR OBSTRUCTIONS TO VISION.

      THIS PRODUCT IS RELEASED AS TWO VERSIONS.  ONE VERSION NEAR
      THE TOP OF THE HOUR CONTAINING PRELIMINARY DATA FROM ALBUQUERQUE
      AND OTHER STATIONS.  A FINAL VERSION WITH ADDITIONAL DATA IS
      ISSUED ABOUT 10 MINUTES AFTER THE HOUR.

NMZ501-503-504-510>518-040300-
NORTHWEST PLATEAU/NORTHCENTRAL MOUNTAINS

CITY           SKY/WX    TMP DP  RH WIND       PRES   REMARKS
FARMINGTON     CLOUDY    39  26  59 W9        29.82R WCI  33
SANTA FE       CLEAR     39  19  44 W7        29.78R WCI  34
TAOS           PTCLDY    34  18  51 NW7       29.81R WCI  28
ANGEL FIRE     FAIR      30  17  56 SW8       29.81R WCI  23

$$
NMZ402-403-502-505>509-040300-
WESTCENTRAL MOUNTAINS/SOUTHWEST MOUNTAINS

CITY           SKY/WX    TMP DP  RH WIND       PRES   REMARKS
GALLUP         FLURRIES  36  30  79 W7        29.86R WCI  30
SILVER CITY    CLEAR     46  27  46 CALM      29.86R

$$
NMZ407-409-411-412-040300-
SOUTHERN DESERTS

CITY           SKY/WX    TMP DP  RH WIND       PRES   REMARKS
DEMING         PTCLDY    52  37  56 S8        29.83R
HOLLOMAN AFB   PTCLDY    52  43  71 SW9       29.83R
ALAMOGORDO     PTCLDY    52  41  66 S9        29.85R
T OR C         CLEAR     52  20  28 W7        29.81R

$$
NMZ519>523-040300-
CENTRAL VALLEYS/CENTRAL HIGHLANDS

CITY           SKY/WX    TMP DP  RH WIND       PRES   REMARKS
ALBUQUERQUE    PTCLDY    50  17  27 W12       29.79R
DOUBLE EAGLE   CLEAR     43  18  36 W7        29.80R
MORIARTY ARPT  FAIR      40  26  57 NW9       29.79R WCI  34
CLINES CORNERS MOCLDY    41  29  62 NW8       29.78R
BELEN          FAIR      48  19  31 W9        29.79R
SOCORRO          N/A     53  14  20 W7        29.78R

$$
NMZ524>526-539-540-040300-
SOUTHCENTRAL MOUNTAINS

CITY           SKY/WX    TMP DP  RH WIND       PRES   REMARKS
RUIDOSO        NOT AVBL

$$
NMZ527>531-040300-
NORTHEAST HIGHLANDS/NORTHEAST PLAINS

CITY           SKY/WX    TMP DP  RH WIND       PRES   REMARKS
LAS VEGAS      PTCLDY    38  22  52 SW12      29.78R WCI  30
RATON          CLEAR     35  19  52 W7        29.75R WCI  29
CLAYTON        CLOUDY    32  29  88 NE18      29.83R WCI  20

$$
NMZ532>537-040300-
EASTCENTRAL PLAINS

CITY           SKY/WX    TMP DP  RH WIND       PRES   REMARKS
TUCUMCARI      MOCLDY    51  41  68 SW7       29.74R
CANNON AFB     PTCLDY    48  41  76 S6        29.80R
CLOVIS AIRPORT PTCLDY    46  41  81 S9        29.81R

$$
NMZ028-029-538-040300-
SOUTHEAST PLAINS

CITY           SKY/WX    TMP DP  RH WIND       PRES   REMARKS
ROSWELL        PTCLDY    49  44  83 S5        29.81R
ARTESIA        PTCLDY    50  46  87 SW9       29.83R
CARLSBAD       CLOUDY    57  44  62 S5        29.82R
HOBBS          CLOUDY    55  48  76 CALM      29.85R


$$


USA.gov is the U.S. government's official web portal to all federal, state and local government web resources and services.